User: anonymous   Login
Location: Unspecified
(0.0000°N, 0.0000°E)
Time: 21:05:12
(UTC+00:00)
Language:

Orbcomm F1 (FM01) - Orbit

View from above orbital plane
View from above orbital plane
View from above satellite
View from above satellite

Ground track
Ground track

The orbit data is extracted from the following two-line orbital elements,

1 23545U 95017A   24108.24892171  .00019054  00000-0  25525-2 0  9990
2 23545  69.9686  47.4901 0008769 253.8283 106.1902 14.79404514549636
Epoch (UTC): 17 April 2024 05:58:26
Eccentricity: 0.0008769
inclination: 69.9686°
perigee height: 625 km
apogee height: 637 km
right ascension of ascending node: 47.4901°
argument of perigee: 253.8283°
revolutions per day: 14.79404514
mean anomaly at epoch: 106.1902°
orbit number at epoch: 54963

The dashed part of the orbit path shows where the satellite is in the earth's shadow,  

DLR